| time (UTC) | temp F | wind direction | speed MPH | gust MPH | rain 1hr in | rain 24hr in | rain mn in | humidity % | barometer mb |
| 20260901014345 | 62 | 0 | 0.0 | 0.0 | 0.00 | 0.14 | 0.00 | 9 | 1012.0 |
| 20260901013844 | 62 | 0 | 0.0 | 0.0 | 0.00 | 0.14 | 0.00 | 9 | 1011.9 |
| 20260901013344 | 62 | 8 | 0.0 | 2.0 | 0.00 | 0.14 | 0.00 | 9 | 1012.0 |
| 20260901012844 | 63 | 0 | 0.0 | 0.0 | 0.00 | 0.14 | 0.00 | 9 | 1012.0 |
| 20260901012343 | 62 | 0 | 0.0 | 0.0 | 0.00 | 0.14 | 0.00 | 9 | 1012.0 |
| 20260901011843 | 62 | 0 | 0.0 | 0.0 | 0.00 | 0.14 | 0.00 | 9 | 1011.9 |
| 20260901011343 | 62 | 0 | 0.0 | 0.0 | 0.00 | 0.14 | 0.00 | 9 | 1012.1 |
| 20260901010342 | 63 | 0 | 0.0 | 0.0 | 0.00 | 0.14 | 0.00 | 9 | 1012.1 |
| 20260901005842 | 62 | 0 | 0.0 | 0.0 | 0.00 | 0.14 | 0.00 | 9 | 1012.1 |
| 20260901005341 | 63 | 0 | 0.0 | 0.0 | 0.00 | 0.14 | 0.00 | 9 | 1012.0 |
| 20260901004841 | 63 | 0 | 0.0 | 0.0 | 0.00 | 0.14 | 0.00 | 9 | 1012.3 |
| 20260901004341 | 63 | 0 | 0.0 | 0.0 | 0.00 | 0.14 | 0.00 | 9 | 1012.3 |
| 20260901003840 | 63 | 0 | 0.0 | 0.0 | 0.00 | 0.14 | 0.00 | 9 | 1012.2 |
| 20260901003340 | 63 | 0 | 0.0 | 0.0 | 0.00 | 0.14 | 0.00 | 9 | 1012.1 |
| 20260901002840 | 63 | 0 | 0.0 | 0.0 | 0.00 | 0.14 | 0.00 | 9 | 1012.2 |
| 20260901002340 | 63 | 0 | 0.0 | 0.0 | 0.00 | 0.14 | 0.00 | 9 | 1012.5 |
| 20260901001839 | 63 | 0 | 0.0 | 0.0 | 0.00 | 0.14 | 0.00 | 9 | 1012.5 |
| 20260901001338 | 63 | 0 | 0.0 | 0.0 | 0.00 | 0.14 | 0.00 | 9 | 1012.2 |
| 20260901000838 | 63 | 0 | 0.0 | 0.0 | 0.00 | 0.14 | 0.00 | 9 | 1012.3 |
| 20260901000338 | 63 | 0 | 0.0 | 0.0 | 0.00 | 0.14 | 0.00 | 9 | 1012.2 |
| 20260831235838 | 63 | 0 | 0.0 | 0.0 | 0.00 | 0.14 | 0.00 | 9 | 1012.4 |
| 20260831235337 | 63 | 0 | 0.0 | 0.0 | 0.00 | 0.14 | 0.00 | 9 | 1012.4 |
| 20260831234837 | 63 | 0 | 0.0 | 0.0 | 0.00 | 0.14 | 0.00 | 9 | 1012.3 |
| 20260831234337 | 63 | 0 | 0.0 | 0.0 | 0.00 | 0.14 | 0.00 | 9 | 1012.4 |
| 20260831233836 | 63 | 0 | 0.0 | 0.0 | 0.00 | 0.14 | 0.00 | 9 | 1012.6 |
| 20260831233336 | 63 | 0 | 0.0 | 0.0 | 0.00 | 0.14 | 0.00 | 9 | 1012.7 |
| 20260831232836 | 63 | 0 | 0.0 | 0.0 | 0.00 | 0.14 | 0.00 | 9 | 1012.6 |
| 20260831232335 | 63 | 0 | 0.0 | 0.0 | 0.00 | 0.14 | 0.00 | 9 | 1012.6 |
| 20260831231835 | 63 | 0 | 0.0 | 0.0 | 0.00 | 0.14 | 0.00 | 9 | 1012.4 |
| 20260831231334 | 63 | 0 | 0.0 | 0.0 | 0.00 | 0.14 | 0.00 | 9 | 1012.5 |
| 20260831230834 | 63 | 0 | 0.0 | 0.0 | 0.00 | 0.14 | 0.00 | 9 | 1012.5 |
| 20260831230334 | 63 | 0 | 0.0 | 0.0 | 0.00 | 0.14 | 0.00 | 9 | 1012.9 |
| 20260831225834 | 63 | 0 | 0.0 | 0.0 | 0.00 | 0.14 | 0.00 | 9 | 1012.9 |
| 20260831225333 | 63 | 0 | 0.0 | 0.0 | 0.00 | 0.14 | 0.00 | 9 | 1012.9 |
| 20260831224833 | 63 | 0 | 0.0 | 0.0 | 0.00 | 0.14 | 0.00 | 9 | 1012.9 |
| 20260831224332 | 63 | 0 | 0.0 | 0.0 | 0.00 | 0.14 | 0.00 | 9 | 1013.0 |
| 20260831223832 | 63 | 0 | 0.0 | 0.0 | 0.00 | 0.14 | 0.00 | 9 | 1012.9 |
| 20260831223332 | 64 | 0 | 0.0 | 0.0 | 0.00 | 0.14 | 0.00 | 9 | 1013.0 |
| 20260831222832 | 64 | 0 | 0.0 | 0.0 | 0.00 | 0.14 | 0.00 | 9 | 1012.9 |
| 20260831222331 | 64 | 0 | 0.0 | 0.0 | 0.00 | 0.14 | 0.00 | 9 | 1012.9 |
| 20260831221831 | 64 | 0 | 0.0 | 0.0 | 0.00 | 0.14 | 0.00 | 9 | 1013.0 |
| 20260831221331 | 64 | 0 | 0.0 | 0.0 | 0.00 | 0.14 | 0.00 | 9 | 1012.9 |
| 20260831220830 | 64 | 0 | 0.0 | 0.0 | 0.00 | 0.14 | 0.00 | 9 | 1012.7 |
| 20260831220330 | 64 | 0 | 0.0 | 0.0 | 0.00 | 0.14 | 0.00 | 9 | 1012.7 |
| 20260831215830 | 64 | 0 | 0.0 | 0.0 | 0.00 | 0.14 | 0.14 | 9 | 1012.8 |
| 20260831215329 | 64 | 278 | 0.0 | 1.0 | 0.00 | 0.14 | 0.14 | 9 | 1013.0 |
| 20260831214829 | 64 | 0 | 0.0 | 0.0 | 0.00 | 0.14 | 0.14 | 9 | 1013.3 |
| 20260831214329 | 64 | 0 | 0.0 | 0.0 | 0.00 | 0.14 | 0.14 | 9 | 1013.2 |
| 20260831213828 | 64 | 0 | 0.0 | 0.0 | 0.00 | 0.14 | 0.14 | 9 | 1013.1 |
| 20260831213328 | 64 | 0 | 0.0 | 0.0 | 0.00 | 0.14 | 0.14 | 9 | 1012.8 |
| 20260831212828 | 64 | 0 | 0.0 | 0.0 | 0.00 | 0.14 | 0.14 | 9 | 1013.0 |
| 20260831212327 | 64 | 0 | 0.0 | 0.0 | 0.00 | 0.14 | 0.14 | 9 | 1013.2 |
| 20260831211827 | 64 | 0 | 0.0 | 0.0 | 0.00 | 0.14 | 0.14 | 9 | 1013.0 |
| 20260831211327 | 64 | 0 | 0.0 | 0.0 | 0.00 | 0.14 | 0.14 | 9 | 1012.9 |
| 20260831210826 | 64 | 0 | 0.0 | 0.0 | 0.00 | 0.14 | 0.14 | 9 | 1013.3 |
| 20260831210326 | 64 | 0 | 0.0 | 0.0 | 0.00 | 0.14 | 0.14 | 9 | 1013.0 |
| 20260831205826 | 64 | 0 | 0.0 | 0.0 | 0.00 | 0.14 | 0.14 | 9 | 1013.2 |
| 20260831205325 | 64 | 325 | 1.0 | 2.0 | 0.00 | 0.14 | 0.14 | 9 | 1013.0 |
| 20260831204825 | 64 | 0 | 0.0 | 0.0 | 0.00 | 0.14 | 0.14 | 9 | 1012.9 |
| 20260831204325 | 64 | 0 | 0.0 | 0.0 | 0.00 | 0.14 | 0.14 | 9 | 1013.0 |
| 20260831203824 | 64 | 0 | 0.0 | 0.0 | 0.00 | 0.14 | 0.14 | 9 | 1012.9 |
| 20260831203324 | 64 | 352 | 0.0 | 1.0 | 0.00 | 0.14 | 0.14 | 9 | 1012.8 |
| 20260831202824 | 65 | 0 | 0.0 | 0.0 | 0.00 | 0.14 | 0.14 | 9 | 1013.1 |
| 20260831202323 | 65 | 0 | 0.0 | 0.0 | 0.00 | 0.14 | 0.14 | 9 | 1012.9 |
| 20260831201823 | 65 | 0 | 0.0 | 0.0 | 0.00 | 0.14 | 0.14 | 9 | 1013.0 |
| 20260831201323 | 65 | 343 | 0.0 | 1.0 | 0.00 | 0.14 | 0.14 | 9 | 1013.0 |
| 20260831200822 | 65 | 355 | 0.0 | 1.0 | 0.00 | 0.14 | 0.14 | 9 | 1012.9 |
| 20260831200322 | 65 | 0 | 0.0 | 0.0 | 0.00 | 0.14 | 0.14 | 9 | 1013.1 |
| 20260831195822 | 65 | 0 | 0.0 | 0.0 | 0.00 | 0.14 | 0.14 | 9 | 1012.9 |
| 20260831195321 | 65 | 31 | 0.0 | 1.0 | 0.00 | 0.14 | 0.14 | 9 | 1013.0 |
| 20260831194821 | 65 | 0 | 0.0 | 0.0 | 0.00 | 0.14 | 0.14 | 9 | 1012.9 |
| 20260831194321 | 65 | 0 | 0.0 | 0.0 | 0.00 | 0.14 | 0.14 | 9 | 1012.8 |
| 20260831193820 | 65 | 343 | 0.0 | 1.0 | 0.00 | 0.14 | 0.14 | 9 | 1012.9 |
| 20260831193320 | 65 | 0 | 0.0 | 0.0 | 0.00 | 0.14 | 0.14 | 9 | 1012.8 |
| 20260831192820 | 65 | 0 | 0.0 | 0.0 | 0.00 | 0.14 | 0.14 | 9 | 1013.0 |
| 20260831192319 | 65 | 345 | 0.0 | 1.0 | 0.00 | 0.14 | 0.14 | 9 | 1012.5 |
| 20260831191819 | 65 | 0 | 0.0 | 0.0 | 0.00 | 0.14 | 0.14 | 9 | 1013.0 |
| 20260831191319 | 65 | 10 | 1.0 | 2.0 | 0.00 | 0.14 | 0.14 | 9 | 1012.9 |
| 20260831190818 | 65 | 0 | 0.0 | 0.0 | 0.00 | 0.14 | 0.14 | 9 | 1012.9 |
| 20260831190318 | 65 | 0 | 0.0 | 0.0 | 0.00 | 0.14 | 0.14 | 9 | 1012.9 |
| 20260831185818 | 65 | 0 | 0.0 | 0.0 | 0.00 | 0.14 | 0.14 | 9 | 1013.0 |
| 20260831185317 | 65 | 0 | 0.0 | 0.0 | 0.00 | 0.14 | 0.14 | 9 | 1013.1 |
| 20260831184817 | 65 | 0 | 0.0 | 0.0 | 0.00 | 0.14 | 0.14 | 9 | 1013.0 |
| 20260831184317 | 65 | 23 | 0.0 | 1.0 | 0.00 | 0.14 | 0.14 | 9 | 1012.8 |
| 20260831183816 | 65 | 0 | 0.0 | 0.0 | 0.00 | 0.14 | 0.14 | 9 | 1012.8 |
| 20260831183316 | 65 | 0 | 0.0 | 0.0 | 0.00 | 0.14 | 0.14 | 9 | 1012.8 |
| 20260831182816 | 65 | 0 | 0.0 | 0.0 | 0.00 | 0.14 | 0.14 | 9 | 1012.6 |
| 20260831182315 | 65 | 320 | 0.0 | 1.0 | 0.00 | 0.14 | 0.14 | 9 | 1012.7 |
| 20260831181815 | 65 | 4 | 0.0 | 1.0 | 0.00 | 0.14 | 0.14 | 9 | 1012.7 |
| 20260831181315 | 65 | 0 | 0.0 | 0.0 | 0.00 | 0.14 | 0.14 | 9 | 1012.6 |
| 20260831180814 | 66 | 288 | 1.0 | 1.0 | 0.00 | 0.14 | 0.14 | 9 | 1012.6 |
| 20260831180314 | 65 | 0 | 0.0 | 0.0 | 0.00 | 0.14 | 0.14 | 9 | 1012.6 |
| 20260831175814 | 66 | 0 | 0.0 | 0.0 | 0.00 | 0.14 | 0.14 | 9 | 1012.4 |
| 20260831175313 | 66 | 0 | 0.0 | 0.0 | 0.00 | 0.14 | 0.14 | 9 | 1012.4 |
| 20260831174813 | 66 | 0 | 0.0 | 0.0 | 0.00 | 0.14 | 0.14 | 9 | 1012.3 |
| 20260831174313 | 66 | 0 | 0.0 | 0.0 | 0.00 | 0.14 | 0.14 | 9 | 1012.3 |
| 20260831173812 | 66 | 0 | 0.0 | 0.0 | 0.00 | 0.14 | 0.14 | 9 | 1012.2 |
| 20260831173312 | 66 | 0 | 0.0 | 0.0 | 0.00 | 0.14 | 0.14 | 9 | 1012.0 |
| 20260831172812 | 66 | 0 | 0.0 | 0.0 | 0.00 | 0.14 | 0.14 | 9 | 1012.2 |
| 20260831172312 | 66 | 0 | 0.0 | 0.0 | 0.00 | 0.14 | 0.14 | 9 | 1012.0 |
| 20260831171811 | 66 | 0 | 0.0 | 0.0 | 0.00 | 0.14 | 0.14 | 9 | 1012.0 |
| 20260831171311 | 66 | 0 | 0.0 | 0.0 | 0.00 | 0.14 | 0.14 | 9 | 1011.8 |
| 20260831170810 | 66 | 0 | 0.0 | 0.0 | 0.00 | 0.14 | 0.14 | 9 | 1012.0 |
| 20260831170310 | 67 | 0 | 0.0 | 0.0 | 0.00 | 0.14 | 0.14 | 9 | 1011.9 |
| 20260831165810 | 67 | 0 | 0.0 | 0.0 | 0.00 | 0.14 | 0.14 | 9 | 1012.0 |
| 20260831165309 | 67 | 0 | 0.0 | 0.0 | 0.00 | 0.14 | 0.14 | 9 | 1012.1 |
| 20260831164809 | 67 | 0 | 0.0 | 0.0 | 0.00 | 0.14 | 0.14 | 9 | 1012.0 |
| 20260831164309 | 67 | 311 | 0.0 | 1.0 | 0.00 | 0.14 | 0.14 | 9 | 1012.0 |
| 20260831163808 | 67 | 0 | 0.0 | 0.0 | 0.00 | 0.14 | 0.14 | 9 | 1012.0 |
| 20260831163308 | 67 | 0 | 0.0 | 0.0 | 0.00 | 0.14 | 0.14 | 9 | 1012.0 |
| 20260831162808 | 67 | 0 | 0.0 | 0.0 | 0.00 | 0.14 | 0.14 | 9 | 1012.1 |
| 20260831162307 | 66 | 0 | 0.0 | 0.0 | 0.00 | 0.14 | 0.14 | 9 | 1012.2 |
| 20260831161807 | 66 | 7 | 1.0 | 2.0 | 0.00 | 0.14 | 0.14 | 9 | 1012.1 |
| 20260831161307 | 66 | 0 | 0.0 | 0.0 | 0.00 | 0.14 | 0.14 | 9 | 1012.0 |
| 20260831160806 | 66 | 0 | 0.0 | 0.0 | 0.00 | 0.14 | 0.14 | 9 | 1011.8 |
| 20260831160306 | 66 | 0 | 0.0 | 0.0 | 0.00 | 0.14 | 0.14 | 9 | 1011.8 |
| 20260831155806 | 66 | 0 | 0.0 | 0.0 | 0.00 | 0.14 | 0.14 | 9 | 1011.8 |
| 20260831155306 | 66 | 0 | 0.0 | 0.0 | 0.00 | 0.14 | 0.14 | 9 | 1012.1 |
| 20260831154805 | 66 | 0 | 0.0 | 0.0 | 0.00 | 0.14 | 0.14 | 9 | 1012.1 |
| 20260831154305 | 66 | 8 | 0.0 | 1.0 | 0.01 | 0.14 | 0.14 | 9 | 1012.0 |
| 20260831153804 | 66 | 0 | 0.0 | 0.0 | 0.01 | 0.14 | 0.14 | 9 | 1012.1 |
| 20260831153304 | 66 | 336 | 0.0 | 1.0 | 0.01 | 0.14 | 0.14 | 9 | 1011.9 |
| 20260831152804 | 66 | 6 | 0.0 | 1.0 | 0.02 | 0.14 | 0.14 | 9 | 1011.8 |
| 20260831152306 | 66 | 25 | 1.0 | 2.0 | 0.03 | 0.14 | 0.14 | 9 | 1012.4 |
| 20260831151803 | 66 | 315 | 1.0 | 1.0 | 0.03 | 0.14 | 0.14 | 9 | 1012.2 |
| 20260831151303 | 67 | 276 | 0.0 | 1.0 | 0.04 | 0.14 | 0.14 | 9 | 1012.1 |
| 20260831150802 | 67 | 0 | 0.0 | 0.0 | 0.04 | 0.14 | 0.14 | 9 | 1012.4 |
| 20260831150302 | 67 | 0 | 0.0 | 0.0 | 0.05 | 0.14 | 0.14 | 9 | 1012.4 |
| 20260831145802 | 67 | 18 | 0.0 | 1.0 | 0.05 | 0.14 | 0.14 | 9 | 1012.4 |
| 20260831145301 | 67 | 0 | 0.0 | 0.0 | 0.05 | 0.14 | 0.14 | 9 | 1012.5 |
| 20260831144801 | 66 | 329 | 0.0 | 1.0 | 0.05 | 0.14 | 0.14 | 9 | 1012.5 |
| 20260831144301 | 66 | 350 | 0.0 | 1.0 | 0.03 | 0.12 | 0.12 | 9 | 1012.6 |
| 20260831143800 | 66 | 308 | 0.0 | 1.0 | 0.03 | 0.12 | 0.12 | 9 | 1012.6 |
| 20260831143300 | 66 | 0 | 0.0 | 0.0 | 0.03 | 0.12 | 0.12 | 9 | 1012.8 |
| 20260831142800 | 66 | 0 | 0.0 | 0.0 | 0.02 | 0.11 | 0.11 | 9 | 1012.8 |
| 20260831142259 | 66 | 10 | 1.0 | 2.0 | 0.01 | 0.11 | 0.11 | 9 | 1012.9 |
| 20260831141759 | 67 | 0 | 0.0 | 0.0 | 0.01 | 0.11 | 0.11 | 9 | 1012.9 |
| 20260831141259 | 67 | 0 | 0.0 | 0.0 | 0.00 | 0.09 | 0.09 | 9 | 1013.2 |
| 20260831140758 | 67 | 0 | 0.0 | 0.0 | 0.00 | 0.09 | 0.09 | 9 | 1013.0 |
| 20260831140258 | 67 | 0 | 0.0 | 0.0 | 0.01 | 0.09 | 0.09 | 9 | 1013.2 |
| 20260831135758 | 67 | 302 | 1.0 | 1.0 | 0.03 | 0.09 | 0.09 | 9 | 1012.8 |
| 20260831135258 | 67 | 0 | 0.0 | 0.0 | 0.05 | 0.09 | 0.09 | 9 | 1012.8 |
| 20260831134757 | 67 | 0 | 0.0 | 0.0 | 0.07 | 0.09 | 0.09 | 9 | 1012.7 |
| 20260831134257 | 67 | 0 | 0.0 | 0.0 | 0.07 | 0.09 | 0.09 | 9 | 1012.9 |
| 20260831133756 | 66 | 0 | 0.0 | 0.0 | 0.07 | 0.09 | 0.09 | 9 | 1012.9 |
| 20260831133256 | 66 | 0 | 0.0 | 0.0 | 0.07 | 0.09 | 0.09 | 9 | 1012.9 |
| 20260831132756 | 66 | 0 | 0.0 | 0.0 | 0.09 | 0.09 | 0.09 | 9 | 1012.7 |
| 20260831132255 | 67 | 0 | 0.0 | 0.0 | 0.09 | 0.09 | 0.09 | 9 | 1012.9 |
| 20260831131755 | 66 | 0 | 0.0 | 0.0 | 0.09 | 0.09 | 0.09 | 9 | 1013.0 |
| 20260831131255 | 66 | 0 | 0.0 | 0.0 | 0.09 | 0.09 | 0.09 | 9 | 1012.8 |
| 20260831130754 | 66 | 0 | 0.0 | 0.0 | 0.09 | 0.09 | 0.09 | 9 | 1012.7 |
| 20260831130254 | 66 | 332 | 0.0 | 1.0 | 0.07 | 0.07 | 0.07 | 8 | 1013.1 |
| 20260831125754 | 67 | 349 | 0.0 | 2.0 | 0.05 | 0.05 | 0.05 | 8 | 1013.0 |
| 20260831125253 | 68 | 0 | 0.0 | 0.0 | 0.03 | 0.03 | 0.03 | 8 | 1013.4 |
| 20260831124753 | 68 | 0 | 0.0 | 0.0 | 0.01 | 0.01 | 0.01 | 8 | 1013.2 |
| 20260831124253 | 69 | 0 | 0.0 | 0.0 | 0.01 | 0.01 | 0.01 | 8 | 1013.3 |
| 20260831123753 | 71 | 0 | 0.0 | 0.0 | 0.01 | 0.01 | 0.01 | 7 | 1013.3 |
| 20260831123252 | 72 | 223 | 3.0 | 4.0 | 0.01 | 0.01 | 0.01 | 7 | 1013.2 |
| 20260831122752 | 73 | 324 | 0.0 | 1.0 | 0.00 | 0.00 | 0.00 | 6 | 1012.9 |
| 20260831122251 | 75 | 6 | 0.0 | 1.0 | 0.00 | 0.00 | 0.00 | 6 | 1012.6 |
| 20260831121751 | 77 | 258 | 1.0 | 2.0 | 0.00 | 0.00 | 0.00 | 6 | 1012.5 |
| 20260831121251 | 77 | 0 | 0.0 | 0.0 | 0.00 | 0.00 | 0.00 | 5 | 1012.1 |
| 20260831120750 | 77 | 0 | 0.0 | 0.0 | 0.00 | 0.00 | 0.00 | 5 | 1012.1 |
| 20260831120250 | 77 | 291 | 1.0 | 1.0 | 0.00 | 0.00 | 0.00 | 5 | 1012.0 |
| 20260831115750 | 77 | 274 | 0.0 | 1.0 | 0.00 | 0.00 | 0.00 | 5 | 1012.0 |
| 20260831115249 | 77 | 0 | 0.0 | 0.0 | 0.00 | 0.00 | 0.00 | 5 | 1011.9 |
| 20260831114749 | 78 | 323 | 0.0 | 1.0 | 0.00 | 0.00 | 0.00 | 5 | 1012.0 |
| 20260831114249 | 78 | 40 | 0.0 | 1.0 | 0.00 | 0.00 | 0.00 | 5 | 1011.7 |
| 20260831113748 | 78 | 0 | 0.0 | 0.0 | 0.00 | 0.00 | 0.00 | 5 | 1011.8 |
| 20260831113248 | 79 | 0 | 0.0 | 0.0 | 0.00 | 0.00 | 0.00 | 5 | 1011.9 |
| 20260831112748 | 79 | 0 | 0.0 | 0.0 | 0.00 | 0.00 | 0.00 | 5 | 1011.8 |
| 20260831112248 | 79 | 0 | 0.0 | 0.0 | 0.00 | 0.00 | 0.00 | 5 | 1011.9 |
| 20260831111747 | 79 | 0 | 0.0 | 0.0 | 0.00 | 0.00 | 0.00 | 5 | 1012.0 |
| 20260831111247 | 79 | 15 | 0.0 | 1.0 | 0.00 | 0.00 | 0.00 | 5 | 1012.0 |
| 20260831110746 | 79 | 17 | 0.0 | 1.0 | 0.00 | 0.00 | 0.00 | 5 | 1012.0 |
| 20260831110246 | 79 | 113 | 0.0 | 2.0 | 0.00 | 0.00 | 0.00 | 5 | 1011.7 |
| 20260831105746 | 79 | 358 | 0.0 | 1.0 | 0.00 | 0.00 | 0.00 | 5 | 1012.0 |
| 20260831105246 | 79 | 258 | 0.0 | 1.0 | 0.00 | 0.00 | 0.00 | 5 | 1011.9 |
| 20260831104745 | 79 | 330 | 0.0 | 1.0 | 0.00 | 0.00 | 0.00 | 5 | 1011.9 |
| 20260831104245 | 79 | 21 | 1.0 | 2.0 | 0.00 | 0.00 | 0.00 | 5 | 1012.2 |
| 20260831103745 | 79 | 0 | 0.0 | 0.0 | 0.00 | 0.00 | 0.00 | 5 | 1012.3 |
| 20260831103244 | 79 | 0 | 0.0 | 0.0 | 0.00 | 0.00 | 0.00 | 5 | 1012.3 |
| 20260831102744 | 79 | 296 | 1.0 | 1.0 | 0.00 | 0.00 | 0.00 | 5 | 1011.9 |
| 20260831102244 | 79 | 0 | 0.0 | 0.0 | 0.00 | 0.00 | 0.00 | 5 | 1012.1 |
| 20260831101743 | 79 | 0 | 0.0 | 0.0 | 0.00 | 0.00 | 0.00 | 5 | 1012.1 |
| 20260831101243 | 79 | 0 | 0.0 | 0.0 | 0.00 | 0.00 | 0.00 | 5 | 1011.8 |
| 20260831100743 | 80 | 21 | 1.0 | 2.0 | 0.00 | 0.00 | 0.00 | 5 | 1012.0 |
| 20260831100242 | 80 | 246 | 2.0 | 3.0 | 0.00 | 0.00 | 0.00 | 5 | 1012.1 |
| 20260831095742 | 81 | 342 | 0.0 | 1.0 | 0.00 | 0.00 | 0.00 | 5 | 1012.1 |
| 20260831095242 | 81 | 34 | 2.0 | 4.0 | 0.00 | 0.00 | 0.00 | 5 | 1012.2 |
| 20260831094741 | 81 | 42 | 2.0 | 3.0 | 0.00 | 0.00 | 0.00 | 5 | 1012.2 |
| 20260831094241 | 82 | 357 | 1.0 | 2.0 | 0.00 | 0.00 | 0.00 | 5 | 1012.4 |
| 20260831093741 | 81 | 261 | 1.0 | 2.0 | 0.00 | 0.00 | 0.00 | 5 | 1012.2 |
| 20260831093240 | 81 | 58 | 0.0 | 1.0 | 0.00 | 0.00 | 0.00 | 5 | 1012.0 |
| 20260831092740 | 81 | 35 | 1.0 | 2.0 | 0.00 | 0.00 | 0.00 | 5 | 1012.0 |
| 20260831092240 | 81 | 207 | 0.0 | 2.0 | 0.00 | 0.00 | 0.00 | 5 | 1012.3 |
| 20260831091739 | 81 | 0 | 0.0 | 0.0 | 0.00 | 0.00 | 0.00 | 5 | 1012.1 |
| 20260831091239 | 81 | 320 | 1.0 | 2.0 | 0.00 | 0.00 | 0.00 | 5 | 1012.4 |
| 20260831090739 | 81 | 0 | 0.0 | 0.0 | 0.00 | 0.00 | 0.00 | 5 | 1012.2 |
| 20260831090238 | 81 | 294 | 0.0 | 2.0 | 0.00 | 0.00 | 0.00 | 5 | 1012.2 |
| 20260831085738 | 80 | 13 | 0.0 | 1.0 | 0.00 | 0.00 | 0.00 | 5 | 1012.4 |
| 20260831085238 | 81 | 79 | 0.0 | 1.0 | 0.00 | 0.00 | 0.00 | 5 | 1012.3 |
| 20260831084737 | 81 | 341 | 0.0 | 1.0 | 0.00 | 0.00 | 0.00 | 5 | 1012.2 |
| 20260831084237 | 80 | 0 | 0.0 | 0.0 | 0.00 | 0.00 | 0.00 | 5 | 1012.3 |
| 20260831083737 | 80 | 18 | 0.0 | 1.0 | 0.00 | 0.00 | 0.00 | 5 | 1012.6 |
| 20260831083236 | 81 | 357 | 0.0 | 1.0 | 0.00 | 0.00 | 0.00 | 5 | 1012.6 |
| 20260831082736 | 81 | 11 | 1.0 | 2.0 | 0.00 | 0.00 | 0.00 | 5 | 1012.7 |
| 20260831082236 | 79 | 0 | 0.0 | 0.0 | 0.00 | 0.00 | 0.00 | 5 | 1012.3 |
| 20260831081735 | 80 | 194 | 0.0 | 2.0 | 0.00 | 0.00 | 0.00 | 5 | 1012.6 |
| 20260831081235 | 80 | 87 | 1.0 | 1.0 | 0.00 | 0.00 | 0.00 | 5 | 1012.6 |
| 20260831080735 | 80 | 330 | 0.0 | 1.0 | 0.00 | 0.00 | 0.00 | 5 | 1012.5 |
| 20260831080234 | 80 | 29 | 0.0 | 1.0 | 0.00 | 0.00 | 0.00 | 5 | 1012.3 |
| 20260831075734 | 80 | 131 | 0.0 | 1.0 | 0.00 | 0.00 | 0.00 | 5 | 1012.7 |
| 20260831075234 | 79 | 0 | 0.0 | 0.0 | 0.00 | 0.00 | 0.00 | 5 | 1012.5 |
| 20260831074733 | 79 | 52 | 0.0 | 1.0 | 0.00 | 0.00 | 0.00 | 5 | 1012.6 |
| 20260831074233 | 79 | 0 | 0.0 | 0.0 | 0.00 | 0.00 | 0.00 | 5 | 1012.5 |
| 20260831073733 | 79 | 0 | 0.0 | 0.0 | 0.00 | 0.00 | 0.00 | 5 | 1012.4 |
| 20260831073232 | 79 | 190 | 1.0 | 1.0 | 0.00 | 0.00 | 0.00 | 5 | 1012.5 |
| 20260831072732 | 80 | 313 | 0.0 | 1.0 | 0.00 | 0.00 | 0.00 | 5 | 1012.8 |
| 20260831072232 | 79 | 0 | 0.0 | 0.0 | 0.00 | 0.00 | 0.00 | 5 | 1012.6 |
| 20260831071731 | 78 | 0 | 0.0 | 0.0 | 0.00 | 0.00 | 0.00 | 5 | 1012.7 |
| 20260831071231 | 77 | 345 | 0.0 | 1.0 | 0.00 | 0.00 | 0.00 | 6 | 1012.7 |
| 20260831070731 | 78 | 0 | 0.0 | 0.0 | 0.00 | 0.00 | 0.00 | 6 | 1012.6 |
| 20260831070230 | 76 | 0 | 0.0 | 0.0 | 0.00 | 0.00 | 0.00 | 6 | 1012.6 |
| 20260831065730 | 77 | 52 | 0.0 | 1.0 | 0.00 | 0.00 | 0.00 | 6 | 1012.7 |
| 20260831065230 | 76 | 0 | 0.0 | 0.0 | 0.00 | 0.00 | 0.00 | 6 | 1012.7 |
| 20260831064729 | 76 | 35 | 0.0 | 1.0 | 0.00 | 0.00 | 0.00 | 6 | 1012.6 |
| 20260831064229 | 75 | 0 | 0.0 | 0.0 | 0.00 | 0.00 | 0.00 | 6 | 1012.8 |
| 20260831063729 | 74 | 76 | 0.0 | 1.0 | 0.00 | 0.00 | 0.00 | 6 | 1012.9 |
| 20260831063228 | 73 | 0 | 0.0 | 0.0 | 0.00 | 0.00 | 0.00 | 6 | 1012.9 |
| 20260831062728 | 72 | 0 | 0.0 | 0.0 | 0.00 | 0.00 | 0.00 | 6 | 1012.9 |
| 20260831062228 | 70 | 0 | 0.0 | 0.0 | 0.00 | 0.00 | 0.00 | 7 | 1012.9 |
| 20260831061727 | 69 | 0 | 0.0 | 0.0 | 0.00 | 0.00 | 0.00 | 7 | 1013.0 |
| 20260831061227 | 68 | 0 | 0.0 | 0.0 | 0.00 | 0.00 | 0.00 | 7 | 1012.8 |
| 20260831060727 | 68 | 0 | 0.0 | 0.0 | 0.00 | 0.00 | 0.00 | 7 | 1012.9 |
| 20260831060226 | 68 | 0 | 0.0 | 0.0 | 0.00 | 0.00 | 0.00 | 7 | 1013.1 |
| 20260831055726 | 67 | 0 | 0.0 | 0.0 | 0.00 | 0.00 | 0.00 | 7 | 1013.0 |
| 20260831055226 | 66 | 0 | 0.0 | 0.0 | 0.00 | 0.00 | 0.00 | 7 | 1013.2 |
| 20260831054725 | 65 | 0 | 0.0 | 0.0 | 0.00 | 0.00 | 0.00 | 7 | 1013.2 |
| 20260831054225 | 65 | 0 | 0.0 | 0.0 | 0.00 | 0.00 | 0.00 | 7 | 1013.4 |
| 20260831053725 | 65 | 0 | 0.0 | 0.0 | 0.00 | 0.00 | 0.00 | 7 | 1013.1 |
| 20260831053224 | 65 | 0 | 0.0 | 0.0 | 0.00 | 0.00 | 0.00 | 7 | 1013.3 |
| 20260831052724 | 64 | 0 | 0.0 | 0.0 | 0.00 | 0.00 | 0.00 | 8 | 1013.4 |
| 20260831052224 | 64 | 0 | 0.0 | 0.0 | 0.00 | 0.00 | 0.00 | 8 | 1013.2 |
| 20260831051723 | 64 | 0 | 0.0 | 0.0 | 0.00 | 0.00 | 0.00 | 8 | 1013.4 |
| 20260831051223 | 63 | 0 | 0.0 | 0.0 | 0.00 | 0.00 | 0.00 | 8 | 1013.5 |
| 20260831050723 | 63 | 0 | 0.0 | 0.0 | 0.00 | 0.00 | 0.00 | 8 | 1013.4 |
| 20260831050222 | 63 | 0 | 0.0 | 0.0 | 0.00 | 0.00 | 0.00 | 8 | 1013.4 |
| 20260831045722 | 63 | 0 | 0.0 | 0.0 | 0.00 | 0.00 | 0.00 | 8 | 1013.4 |
| 20260831045222 | 62 | 0 | 0.0 | 0.0 | 0.00 | 0.00 | 0.00 | 8 | 1013.5 |
| 20260831044721 | 63 | 0 | 0.0 | 0.0 | 0.00 | 0.00 | 0.00 | 8 | 1013.3 |
| 20260831044221 | 62 | 0 | 0.0 | 0.0 | 0.00 | 0.00 | 0.00 | 8 | 1013.3 |
| 20260831043721 | 62 | 0 | 0.0 | 0.0 | 0.00 | 0.00 | 0.00 | 8 | 1013.4 |
| 20260831043220 | 62 | 0 | 0.0 | 0.0 | 0.00 | 0.00 | 0.00 | 8 | 1013.2 |
| 20260831042720 | 62 | 0 | 0.0 | 0.0 | 0.00 | 0.00 | 0.00 | 8 | 1013.4 |
| 20260831042220 | 62 | 0 | 0.0 | 0.0 | 0.00 | 0.00 | 0.00 | 8 | 1013.2 |
| 20260831041719 | 62 | 0 | 0.0 | 0.0 | 0.00 | 0.00 | 0.00 | 8 | 1013.2 |
| 20260831041219 | 62 | 0 | 0.0 | 0.0 | 0.00 | 0.00 | 0.00 | 8 | 1013.1 |
| 20260831040719 | 62 | 0 | 0.0 | 0.0 | 0.00 | 0.00 | 0.00 | 8 | 1013.3 |
| 20260831040218 | 62 | 0 | 0.0 | 0.0 | 0.00 | 0.00 | 0.00 | 8 | 1013.5 |
| 20260831035718 | 62 | 0 | 0.0 | 0.0 | 0.00 | 0.00 | 0.00 | 8 | 1013.1 |
| 20260831035218 | 62 | 0 | 0.0 | 0.0 | 0.00 | 0.00 | 0.00 | 8 | 1013.3 |
| 20260831034717 | 62 | 0 | 0.0 | 0.0 | 0.00 | 0.00 | 0.00 | 8 | 1013.2 |
| 20260831034217 | 62 | 0 | 0.0 | 0.0 | 0.00 | 0.00 | 0.00 | 8 | 1013.4 |
| 20260831033717 | 62 | 0 | 0.0 | 0.0 | 0.00 | 0.00 | 0.00 | 8 | 1013.2 |
| 20260831033216 | 62 | 0 | 0.0 | 0.0 | 0.00 | 0.00 | 0.00 | 8 | 1013.4 |
| 20260831032716 | 62 | 0 | 0.0 | 0.0 | 0.00 | 0.00 | 0.00 | 8 | 1013.2 |
| 20260831032216 | 62 | 0 | 0.0 | 0.0 | 0.00 | 0.00 | 0.00 | 8 | 1013.3 |
| 20260831031715 | 62 | 0 | 0.0 | 0.0 | 0.00 | 0.00 | 0.00 | 8 | 1013.2 |
| 20260831031215 | 63 | 0 | 0.0 | 0.0 | 0.00 | 0.00 | 0.00 | 8 | 1013.1 |
| 20260831030715 | 63 | 0 | 0.0 | 0.0 | 0.00 | 0.00 | 0.00 | 8 | 1013.3 |
| 20260831030214 | 63 | 0 | 0.0 | 0.0 | 0.00 | 0.00 | 0.00 | 8 | 1013.3 |
| 20260831025714 | 63 | 0 | 0.0 | 0.0 | 0.00 | 0.00 | 0.00 | 8 | 1013.3 |
| 20260831025214 | 63 | 0 | 0.0 | 0.0 | 0.00 | 0.00 | 0.00 | 8 | 1013.1 |
| 20260831024714 | 63 | 0 | 0.0 | 0.0 | 0.00 | 0.00 | 0.00 | 8 | 1013.4 |
| 20260831024213 | 63 | 0 | 0.0 | 0.0 | 0.00 | 0.00 | 0.00 | 8 | 1013.4 |
| 20260831023713 | 63 | 0 | 0.0 | 0.0 | 0.00 | 0.00 | 0.00 | 8 | 1013.4 |
| 20260831023213 | 63 | 0 | 0.0 | 0.0 | 0.00 | 0.00 | 0.00 | 8 | 1013.2 |
| 20260831022712 | 63 | 0 | 0.0 | 0.0 | 0.00 | 0.00 | 0.00 | 8 | 1013.4 |
| 20260831022212 | 63 | 0 | 0.0 | 0.0 | 0.00 | 0.00 | 0.00 | 8 | 1013.3 |
| 20260831021712 | 64 | 0 | 0.0 | 0.0 | 0.00 | 0.00 | 0.00 | 8 | 1013.3 |
| 20260831021211 | 64 | 0 | 0.0 | 0.0 | 0.00 | 0.00 | 0.00 | 8 | 1013.3 |
| 20260831020711 | 64 | 0 | 0.0 | 0.0 | 0.00 | 0.00 | 0.00 | 7 | 1013.4 |
| 20260831020211 | 64 | 0 | 0.0 | 0.0 | 0.00 | 0.00 | 0.00 | 7 | 1013.4 |
| 20260831015710 | 64 | 0 | 0.0 | 0.0 | 0.00 | 0.00 | 0.00 | 7 | 1013.5 |
| 20260831015210 | 64 | 0 | 0.0 | 0.0 | 0.00 | 0.00 | 0.00 | 7 | 1013.3 |